OBJECT XW, 66910

Orbit data source: Space-Track

You're viewing an Uncataloged Satellite

Recently launched and/or uncataloged satellites may have evolving metadata. Metadata may include but not limited to: Owner, Maufacturer, Bus, Motor, and Mission.

OBJECT XW, 66910 is an American satellite in LEO that was delivered to and deployed from the ISS. Unknown objects in Earth's orbit typically refer to objects detected orbiting the Earth but have not yet been identified or cataloged. These objects could be anything from previously untracked satellites, spent rocket stages, debris from satellite collisions, or even natural meteoroids temporarily captured by Earth's gravity.

Loading next visibility...
Identifier
66910, 1998-067XW
Orbit
LEO
Country
Flag of USUS
Related business
None
Manufacturer
Unknown
Mission
Operational spacecraft
Bus & Motor
Unknown
Mass
Unknown
Launch date (UTC)
1998-11-20 (27 years ago)
Launch vehicle
FALCON 9
Launch site
Tyuratam Missile And Space Complex (TTMTR)
Object type
Unknown
Shape & HBR
Unknown
Radar Cross Section
RCS unknown

Expand to show TLE details & history
Last TLE update: 9 hours ago

TLE from 9 hours ago
0 OBJECT XW
1 66910U 98067XW  25351.61784312  .00051432  00000-0  83128-3 0  9990
2 66910  51.6302 118.1137 0004530 233.5237 126.5336 15.52327753  2378
Epoch: 2025-12-17T14:49Z
TLE epoch observation values (Epoch: 2025-12-17T14:49:41.645Z)
Latitude
-0°
Longitude
169.20505°
Altitude
412.504 km
Speed
7.664 km/s
True Right ascension
07h 52m 27s
True Declination
0° 00' 00"
Sunlit
Object was in full shadow at epoch
Visualization orbit readout
Latitude
Unknown
Longitude
Unknown
Altitude
Unknown
Speed
Unknown
Apparent Right ascension
Unknown
Apparent Declination
Unknown
Sunlit
N/A
Visualization observer readout
Local Sidereal Time
22:08:07
Azimuth
Unknown
Elevation
Unknown
Doppler factor
Unknown
Orbital elements
Apogee altitude
413.517 km
Perigee altitude
407.366 km
Semi-major axis
6,788.579 km
Eccentricity
0.00045
Inclination
51.6302°
RAAN
118.1137°
Arg. of periapsis
233.5237°
True anomaly
126.5753°
Mean anomaly
126.5336°
Eccentric anomaly
126.55445°
Mean motion
3.88039 °/min
Orbital period
92.77 mins
BSTAR
0.00083128
Loading maneuver chart data...
Computing Atmospheric mass density...

Documentation

Showing up to 5 results
|